Torna al catalogo

NOAA 16 DEB

AttivoSSO
NORAD 41260·DEBRIS·🇺🇸 United States

Lanciato Sep 21, 2000 da Vandenberg Space Force Base

Loading…

Prossimi Passaggi (prossime 24 ore)

TLE

In scadenzaSource: Space-Track

Epoca: Sep 11, 2026, 04:24 UTC

1 41260U 00055FL  26254.18370953  .00001892  00000-0  84184-3 0  9996
2 41260  98.7624 335.8991 0021584 244.0105 115.8851 14.23980445554570

Traccia NOAA 16 DEB in tempo reale con AllMySat

Download on the App Store